,,,PA_Meas_PMT16A,,PR_Meas_QMR101_102,,RH_Meas_QMH101,,SR_Meas_QMS101,,TA_Meas_QMH101,,GenWind,,GenWind,
date,time,status,PA,status,PR,status,RH,status,SR,status,TA,status,DirAvg,status,SpdAvg,
2009-03-20, 00:00:05,VALID,1004.1,VALID,0,VALID,91.8822,VALID,0,VALID,25.1813,VALID,359,VALID,0.0296875,
2009-03-20, 00:01:05,VALID,1004.06,VALID,0,VALID,91.9585,VALID,0,VALID,25.2027,VALID,359,VALID,0.526563,
2009-03-20, 00:02:05,VALID,1004.05,VALID,0,VALID,92.0577,VALID,0,VALID,25.1832,VALID,359,VALID,0.208984,
2009-03-20, 00:03:05,VALID,1004.03,VALID,0,VALID,92.134,VALID,0,VALID,25.1637,VALID,359,VALID,0.242969,
2009-03-20, 00:04:05,VALID,1004.01,VALID,0,VALID,92.2408,VALID,0,VALID,25.1229,VALID,359,VALID,0,
2009-03-20, 00:05:05,VALID,1003.99,VALID,0,VALID,92.3171,VALID,0,VALID,25.1229,VALID,359,VALID,0,
2009-03-20, 00:06:05,VALID,1003.99,VALID,0,VALID,92.3781,VALID,0,VALID,25.1053,VALID,359,VALID,0.186719,
2009-03-20, 00:07:05,VALID,1003.98,VALID,0,VALID,92.401,VALID,0,VALID,25.1053,VALID,303,VALID,0.376172,
2009-03-20, 00:08:05,VALID,1003.98,VALID,0,VALID,92.4163,VALID,0,VALID,25.0839,VALID,303,VALID,0.0859375,
2009-03-20, 00:09:05,VALID,1003.99,VALID,0,VALID,92.3476,VALID,0,VALID,25.0839,VALID,310,VALID,0.607813,
2009-03-20, 00:10:05,VALID,1003.98,VALID,0,VALID,92.3629,VALID,0,VALID,25.1053,VALID,288,VALID,0.519141,
2009-03-20, 00:11:05,VALID,1003.99,VALID,0,VALID,92.3705,VALID,0,VALID,25.0839,VALID,295,VALID,0.312891,
2009-03-20, 00:12:05,VALID,1003.99,VALID,0,VALID,92.2561,VALID,0,VALID,25.1034,VALID,353,VALID,0.554297,
2009-03-20, 00:13:05,VALID,1003.99,VALID,0,VALID,92.1416,VALID,0,VALID,25.1248,VALID,360,VALID,0.601953,
2009-03-20, 00:14:05,VALID,1003.94,VALID,0,VALID,91.9967,VALID,0,VALID,25.1442,VALID,313,VALID,0.902734,
2009-03-20, 00:15:05,VALID,1003.93,VALID,0,VALID,91.9128,VALID,0,VALID,25.1832,VALID,350,VALID,0.35,
2009-03-20, 00:16:05,VALID,1003.91,VALID,0,VALID,91.8517,VALID,0,VALID,25.2027,VALID,273,VALID,0.189063,
2009-03-20, 00:17:05,VALID,1003.9,VALID,0,VALID,91.7373,VALID,0,VALID,25.2416,VALID,300,VALID,1.12969,
2009-03-20, 00:18:05,VALID,1003.88,VALID,0,VALID,91.4855,VALID,0,VALID,25.2806,VALID,289,VALID,0.453906,
2009-03-20, 00:19:05,VALID,1003.91,VALID,0,VALID,91.0354,VALID,0,VALID,25.3584,VALID,261,VALID,1.02148,
2009-03-20, 00:20:05,VALID,1003.86,VALID,0,VALID,90.6769,VALID,0,VALID,25.4169,VALID,223,VALID,0.408594,
2009-03-20, 00:21:05,VALID,1003.86,VALID,0,VALID,89.5783,VALID,0,VALID,25.4539,VALID,247,VALID,1.30039,
2009-03-20, 00:22:05,VALID,1003.81,VALID,0,VALID,88.8078,VALID,0,VALID,25.5921,VALID,311,VALID,0.975,
2009-03-20, 00:23:05,VALID,1003.82,VALID,0,VALID,88.3958,VALID,0,VALID,25.67,VALID,289,VALID,0.773047,
2009-03-20, 00:24:05,VALID,1003.81,VALID,0,VALID,87.8923,VALID,0,VALID,25.7285,VALID,293,VALID,1.4668,
2009-03-20, 00:25:05,VALID,1003.79,VALID,0,VALID,87.6711,VALID,0,VALID,25.7674,VALID,262,VALID,0.496484,
2009-03-20, 00:26:05,VALID,1003.78,VALID,0,VALID,87.5109,VALID,0,VALID,25.785,VALID,286,VALID,0.433594,
2009-03-20, 00:27:05,VALID,1003.77,VALID,0,VALID,87.3278,VALID,0,VALID,25.8259,VALID,277,VALID,1.55078,
2009-03-20, 00:28:05,VALID,1003.79,VALID,0,VALID,86.8624,VALID,0,VALID,25.8453,VALID,292,VALID,1.39531,
2009-03-20, 00:29:05,VALID,1003.73,VALID,0,VALID,86.5878,VALID,0,VALID,25.8843,VALID,297,VALID,0.735156,
2009-03-20, 00:30:04,VALID,1003.75,VALID,0,VALID,86.7099,VALID,0,VALID,25.9038,VALID,319,VALID,0.791406,
2009-03-20, 00:31:04,VALID,1003.71,VALID,0,VALID,86.5954,VALID,0,VALID,25.8843,VALID,294,VALID,0.435937,
2009-03-20, 00:32:04,VALID,1003.7,VALID,0,VALID,86.4505,VALID,0,VALID,25.8823,VALID,293,VALID,0.485156,
2009-03-20, 00:33:04,VALID,1003.67,VALID,0,VALID,86.3971,VALID,0,VALID,25.9232,VALID,23,VALID,0.496094,
2009-03-20, 00:34:04,VALID,1003.7,VALID,0,VALID,85.7715,VALID,0,VALID,25.9232,VALID,301,VALID,0.759375,
2009-03-20, 00:35:04,VALID,1003.71,VALID,0,VALID,85.8554,VALID,0,VALID,25.9622,VALID,324,VALID,0.380859,
2009-03-20, 00:36:04,VALID,1003.67,VALID,0,VALID,85.4206,VALID,0,VALID,25.9622,VALID,246,VALID,1.13867,
2009-03-20, 00:37:04,VALID,1003.69,VALID,0,VALID,85.2985,VALID,0,VALID,25.9992,VALID,288,VALID,1.3625,
2009-03-20, 00:38:04,VALID,1003.65,VALID,0,VALID,85.2299,VALID,0,VALID,26.0401,VALID,246,VALID,0.676953,
2009-03-20, 00:39:04,VALID,1003.68,VALID,0,VALID,85.4892,VALID,0,VALID,26.0596,VALID,220,VALID,1.08477,
2009-03-20, 00:40:04,VALID,1003.64,VALID,0,VALID,85.2756,VALID,0,VALID,26.0791,VALID,211,VALID,1.92773,
2009-03-20, 00:41:04,VALID,1003.58,VALID,0,VALID,85.4663,VALID,0,VALID,26.0985,VALID,254,VALID,0.794531,
2009-03-20, 00:42:04,VALID,1003.58,VALID,0,VALID,85.7486,VALID,0,VALID,26.0985,VALID,300,VALID,1.19922,
2009-03-20, 00:43:04,VALID,1003.52,VALID,0,VALID,85.0544,VALID,0,VALID,26.0771,VALID,277,VALID,2.125,
2009-03-20, 00:44:04,VALID,1003.46,VALID,0,VALID,85.1459,VALID,0,VALID,26.1375,VALID,276,VALID,1.78828,
2009-03-20, 00:45:04,VALID,1003.45,VALID,0,VALID,85.207,VALID,0,VALID,26.157,VALID,287,VALID,1.22617,
2009-03-20, 00:46:04,VALID,1003.44,VALID,0,VALID,85.4129,VALID,0,VALID,26.157,VALID,248,VALID,0.887891,
2009-03-20, 00:47:04,VALID,1003.46,VALID,0,VALID,85.4511,VALID,0,VALID,26.157,VALID,291,VALID,0.975,
2009-03-20, 00:48:04,VALID,1003.42,VALID,0,VALID,85.2299,VALID,0,VALID,26.1765,VALID,214,VALID,1.21016,
2009-03-20, 00:49:04,VALID,1003.41,VALID,0,VALID,85.3214,VALID,0,VALID,26.1765,VALID,302,VALID,0.674609,
2009-03-20, 00:50:04,VALID,1003.42,VALID,0,VALID,85.001,VALID,0,VALID,26.1765,VALID,262,VALID,0.639453,
2009-03-20, 00:51:04,VALID,1003.4,VALID,0,VALID,84.8179,VALID,0,VALID,26.1979,VALID,236,VALID,1.03555,
2009-03-20, 00:52:04,VALID,1003.36,VALID,0,VALID,84.8332,VALID,0,VALID,26.1745,VALID,312,VALID,1.11406,
2009-03-20, 00:53:04,VALID,1003.34,VALID,0,VALID,84.4899,VALID,0,VALID,26.194,VALID,311,VALID,0.837891,
2009-03-20, 00:54:04,VALID,1003.32,VALID,0,VALID,84.9476,VALID,0,VALID,26.1959,VALID,293,VALID,0.494922,
2009-03-20, 00:55:04,VALID,1003.37,VALID,0,VALID,85.1841,VALID,0,VALID,26.157,VALID,190,VALID,0.494922,
2009-03-20, 00:56:04,VALID,1003.3,VALID,0,VALID,84.7416,VALID,0,VALID,26.118,VALID,272,VALID,0.855078,
2009-03-20, 00:57:04,VALID,1003.32,VALID,0,VALID,84.589,VALID,0,VALID,26.118,VALID,264,VALID,1.19258,
2009-03-20, 00:58:04,VALID,1003.28,VALID,0,VALID,84.5127,VALID,0,VALID,26.118,VALID,313,VALID,1.36055,
2009-03-20, 00:59:04,VALID,1003.28,VALID,0,VALID,84.7111,VALID,0,VALID,26.118,VALID,247,VALID,0.230469,
2009-03-20, 01:00:04,VALID,1003.3,VALID,0,VALID,84.9705,VALID,0,VALID,26.0985,VALID,297,VALID,0.823438,
2009-03-20, 01:01:04,VALID,1003.3,VALID,0,VALID,84.5738,VALID,0,VALID,26.0985,VALID,282,VALID,0.838281,
2009-03-20, 01:02:04,VALID,1003.29,VALID,0,VALID,84.5127,VALID,0,VALID,26.118,VALID,297,VALID,0.474219,
2009-03-20, 01:03:04,VALID,1003.3,VALID,0,VALID,84.3983,VALID,0,VALID,26.118,VALID,286,VALID,0.755859,
2009-03-20, 01:04:04,VALID,1003.23,VALID,0,VALID,84.116,VALID,0,VALID,26.0966,VALID,289,VALID,1.51289,
2009-03-20, 01:05:04,VALID,1003.22,VALID,0,VALID,84.1542,VALID,0,VALID,26.157,VALID,296,VALID,1.05469,
2009-03-20, 01:06:04,VALID,1003.19,VALID,0,VALID,83.8109,VALID,0,VALID,26.1765,VALID,252,VALID,1.39688,
2009-03-20, 01:07:04,VALID,1003.19,VALID,0,VALID,84.1313,VALID,0,VALID,26.1959,VALID,247,VALID,0.641406,
2009-03-20, 01:08:04,VALID,1003.15,VALID,0,VALID,84.0092,VALID,0,VALID,26.1765,VALID,303,VALID,1.20469,
2009-03-20, 01:09:04,VALID,1003.15,VALID,0,VALID,84.2534,VALID,0,VALID,26.157,VALID,350,VALID,0.46875,
2009-03-20, 01:10:04,VALID,1003.14,VALID,0,VALID,84.1466,VALID,0,VALID,26.157,VALID,238,VALID,0.632422,
2009-03-20, 01:11:04,VALID,1003.14,VALID,0,VALID,84.261,VALID,0,VALID,26.1765,VALID,278,VALID,0.411719,
2009-03-20, 01:12:04,VALID,1003.15,VALID,0,VALID,84.5204,VALID,0,VALID,26.157,VALID,326,VALID,0.719531,
2009-03-20, 01:13:04,VALID,1003.1,VALID,0,VALID,84.7645,VALID,0,VALID,26.116,VALID,251,VALID,0.628125,
2009-03-20, 01:14:04,VALID,1003.09,VALID,0,VALID,84.8866,VALID,0,VALID,26.118,VALID,345,VALID,0.623438,
2009-03-20, 01:15:04,VALID,1003.06,VALID,0,VALID,85.3519,VALID,0,VALID,26.118,VALID,344,VALID,0.0441406,
2009-03-20, 01:16:04,VALID,1003.07,VALID,0,VALID,85.2451,VALID,0,VALID,26.118,VALID,278,VALID,0.662891,
2009-03-20, 01:17:04,VALID,1003.03,VALID,0,VALID,85.3901,VALID,0,VALID,26.118,VALID,248,VALID,0.961328,
2009-03-20, 01:18:04,VALID,1003.01,VALID,0,VALID,85.3901,VALID,0,VALID,26.157,VALID,218,VALID,0.482422,
2009-03-20, 01:19:04,VALID,1003.01,VALID,0,VALID,84.9628,VALID,0,VALID,26.116,VALID,202,VALID,0.448828,
2009-03-20, 01:20:04,VALID,1002.99,VALID,0,VALID,85.1154,VALID,0,VALID,26.157,VALID,219,VALID,0.728906,
2009-03-20, 01:21:04,VALID,1002.98,VALID,0,VALID,84.9934,VALID,0,VALID,26.1765,VALID,296,VALID,1.06836,
2009-03-20, 01:22:04,VALID,1002.99,VALID,0,VALID,85.0849,VALID,0,VALID,26.1959,VALID,234,VALID,0.721484,
2009-03-20, 01:23:04,VALID,1003,VALID,0,VALID,85.4663,VALID,0,VALID,26.1959,VALID,204,VALID,0.258594,
2009-03-20, 01:24:04,VALID,1002.94,VALID,0,VALID,85.5732,VALID,0,VALID,26.1765,VALID,201,VALID,0.462109,
2009-03-20, 01:25:04,VALID,1002.92,VALID,0,VALID,85.3824,VALID,0,VALID,26.1355,VALID,45,VALID,0.80625,
2009-03-20, 01:26:04,VALID,1002.93,VALID,0,VALID,85.4892,VALID,0,VALID,26.1765,VALID,257,VALID,1.43477,
2009-03-20, 01:27:04,VALID,1002.92,VALID,0,VALID,85.4435,VALID,0,VALID,26.1765,VALID,192,VALID,0.770703,
2009-03-20, 01:28:04,VALID,1002.93,VALID,0,VALID,85.2985,VALID,0,VALID,26.1765,VALID,235,VALID,0.761328,
2009-03-20, 01:29:04,VALID,1002.89,VALID,0,VALID,85.0239,VALID,0,VALID,26.1765,VALID,263,VALID,1.70508,
2009-03-20, 01:30:04,VALID,1002.91,VALID,0,VALID,85.0086,VALID,0,VALID,26.1959,VALID,239,VALID,0.282031,
2009-03-20, 01:31:04,VALID,1002.88,VALID,0,VALID,85.0544,VALID,0,VALID,26.2154,VALID,270,VALID,1.0543,
2009-03-20, 01:32:04,VALID,1002.86,VALID,0,VALID,84.8637,VALID,0,VALID,26.2154,VALID,193,VALID,0.672266,
2009-03-20, 01:33:04,VALID,1002.87,VALID,0,VALID,84.2915,VALID,0,VALID,26.1959,VALID,274,VALID,1.16719,
2009-03-20, 01:34:04,VALID,1002.86,VALID,0,VALID,84.2076,VALID,0,VALID,26.2154,VALID,315,VALID,1.10664,
2009-03-20, 01:35:04,VALID,1002.88,VALID,0,VALID,84.2228,VALID,0,VALID,26.2544,VALID,238,VALID,0.58125,
2009-03-20, 01:36:04,VALID,1002.84,VALID,0,VALID,84.0016,VALID,0,VALID,26.2349,VALID,199,VALID,0.703906,
2009-03-20, 01:37:04,VALID,1002.82,VALID,0,VALID,83.9482,VALID,0,VALID,26.2544,VALID,200,VALID,0.940625,
2009-03-20, 01:38:04,VALID,1002.8,VALID,0,VALID,83.521,VALID,0,VALID,26.2544,VALID,288,VALID,1.25352,
2009-03-20, 01:39:04,VALID,1002.81,VALID,0,VALID,83.5439,VALID,0,VALID,26.2953,VALID,222,VALID,0.647266,
2009-03-20, 01:40:04,VALID,1002.8,VALID,0,VALID,83.7346,VALID,0,VALID,26.2933,VALID,238,VALID,0.979688,
2009-03-20, 01:41:04,VALID,1002.81,VALID,0,VALID,84.0016,VALID,0,VALID,26.2719,VALID,252,VALID,0.359375,
2009-03-20, 01:42:04,VALID,1002.82,VALID,0,VALID,83.9558,VALID,0,VALID,26.2739,VALID,255,VALID,1.325,
2009-03-20, 01:43:04,VALID,1002.8,VALID,0,VALID,84.055,VALID,0,VALID,26.2953,VALID,288,VALID,0.66875,
2009-03-20, 01:44:04,VALID,1002.83,VALID,0,VALID,84.322,VALID,0,VALID,26.2933,VALID,280,VALID,0.233594,
2009-03-20, 01:45:04,VALID,1002.77,VALID,0,VALID,84.4288,VALID,0,VALID,26.2544,VALID,331,VALID,0.869922,
2009-03-20, 01:46:04,VALID,1002.74,VALID,0,VALID,84.5738,VALID,0,VALID,26.2349,VALID,236,VALID,0.627734,
2009-03-20, 01:47:04,VALID,1002.73,VALID,0,VALID,84.4746,VALID,0,VALID,26.2154,VALID,248,VALID,1.02617,
2009-03-20, 01:48:04,VALID,1002.81,VALID,0,VALID,84.5356,VALID,0,VALID,26.2349,VALID,271,VALID,0.79375,
2009-03-20, 01:49:04,VALID,1002.76,VALID,0,VALID,84.4288,VALID,0,VALID,26.2564,VALID,254,VALID,0.421484,
2009-03-20, 01:50:04,VALID,1002.76,VALID,0,VALID,84.6043,VALID,0,VALID,26.2544,VALID,262,VALID,0.13125,
2009-03-20, 01:51:04,VALID,1002.72,VALID,0,VALID,84.467,VALID,0,VALID,26.2349,VALID,254,VALID,0.222266,
2009-03-20, 01:52:04,VALID,1002.72,VALID,0,VALID,84.7035,VALID,0,VALID,26.2154,VALID,43,VALID,0.615625,
2009-03-20, 01:53:04,VALID,1002.68,VALID,0,VALID,84.6043,VALID,0,VALID,26.1959,VALID,351,VALID,0.518359,
2009-03-20, 01:54:04,VALID,1002.67,VALID,0,VALID,84.7187,VALID,0,VALID,26.1745,VALID,228,VALID,1.25937,
2009-03-20, 01:55:04,VALID,1002.64,VALID,0,VALID,84.7492,VALID,0,VALID,26.2154,VALID,210,VALID,0.469922,
2009-03-20, 01:56:04,VALID,1002.64,VALID,0,VALID,84.6424,VALID,0,VALID,26.2154,VALID,255,VALID,0.513672,
2009-03-20, 01:57:04,VALID,1002.69,VALID,0,VALID,84.6272,VALID,0,VALID,26.1765,VALID,191,VALID,0.803516,
2009-03-20, 01:58:04,VALID,1002.69,VALID,0,VALID,84.5814,VALID,0,VALID,26.157,VALID,264,VALID,0.789063,
2009-03-20, 01:59:04,VALID,1002.7,VALID,0,VALID,84.8103,VALID,0,VALID,26.1765,VALID,271,VALID,0.357812,
2009-03-20, 02:00:04,VALID,1002.68,VALID,0,VALID,84.5204,VALID,0,VALID,26.157,VALID,305,VALID,0.803906,
2009-03-20, 02:01:04,VALID,1002.68,VALID,0,VALID,84.4899,VALID,0,VALID,26.1784,VALID,165,VALID,0.552344,
2009-03-20, 02:02:04,VALID,1002.69,VALID,0,VALID,84.5814,VALID,0,VALID,26.1375,VALID,197,VALID,0.385938,
2009-03-20, 02:03:04,VALID,1002.67,VALID,0,VALID,84.2457,VALID,0,VALID,26.1375,VALID,211,VALID,0.684766,
2009-03-20, 02:04:04,VALID,1002.67,VALID,0,VALID,84.1084,VALID,0,VALID,26.1765,VALID,241,VALID,0.964844,
2009-03-20, 02:05:04,VALID,1002.65,VALID,0,VALID,84.0245,VALID,0,VALID,26.1959,VALID,47,VALID,0.380859,
2009-03-20, 02:06:04,VALID,1002.65,VALID,0,VALID,83.8109,VALID,0,VALID,26.2174,VALID,305,VALID,0.234375,
2009-03-20, 02:07:04,VALID,1002.63,VALID,0,VALID,83.9329,VALID,0,VALID,26.1765,VALID,204,VALID,0.419141,
2009-03-20, 02:08:04,VALID,1002.63,VALID,0,VALID,83.8261,VALID,0,VALID,26.1765,VALID,222,VALID,0.342578,
2009-03-20, 02:09:04,VALID,1002.62,VALID,0,VALID,84.2839,VALID,0,VALID,26.1355,VALID,221,VALID,0.291406,
2009-03-20, 02:10:04,VALID,1002.63,VALID,0,VALID,84.2,VALID,0,VALID,26.1375,VALID,179,VALID,0.629297,
2009-03-20, 02:11:04,VALID,1002.6,VALID,0,VALID,84.1694,VALID,0,VALID,26.1375,VALID,268,VALID,1.1332,
2009-03-20, 02:12:04,VALID,1002.59,VALID,0,VALID,84.3373,VALID,0,VALID,26.118,VALID,217,VALID,0.300781,
2009-03-20, 02:13:04,VALID,1002.57,VALID,0,VALID,84.4975,VALID,0,VALID,26.1005,VALID,217,VALID,0.385938,
2009-03-20, 02:14:04,VALID,1002.55,VALID,0,VALID,84.383,VALID,0,VALID,26.0401,VALID,330,VALID,0.340625,
2009-03-20, 02:15:04,VALID,1002.54,VALID,0,VALID,84.5661,VALID,0,VALID,26.0401,VALID,329,VALID,0.230078,
2009-03-20, 02:16:04,VALID,1002.56,VALID,0,VALID,84.6501,VALID,0,VALID,26.0421,VALID,239,VALID,0.594531,
2009-03-20, 02:17:04,VALID,1002.55,VALID,0,VALID,84.4746,VALID,0,VALID,26.0012,VALID,252,VALID,0.979688,
2009-03-20, 02:18:04,VALID,1002.53,VALID,0,VALID,84.589,VALID,0,VALID,26.0206,VALID,327,VALID,0.502344,
2009-03-20, 02:19:04,VALID,1002.54,VALID,0,VALID,84.5738,VALID,0,VALID,26.0012,VALID,324,VALID,0.935156,
2009-03-20, 02:20:04,VALID,1002.49,VALID,0,VALID,84.6348,VALID,0,VALID,26.0206,VALID,314,VALID,0.96875,
2009-03-20, 02:21:04,VALID,1002.51,VALID,0,VALID,84.8026,VALID,0,VALID,26.0206,VALID,225,VALID,0.292188,
2009-03-20, 02:22:04,VALID,1002.53,VALID,0,VALID,84.4822,VALID,0,VALID,26.0226,VALID,243,VALID,0.574609,
2009-03-20, 02:23:04,VALID,1002.52,VALID,0,VALID,84.7035,VALID,0,VALID,26.0012,VALID,263,VALID,1.0668,
2009-03-20, 02:24:04,VALID,1002.49,VALID,0,VALID,84.6272,VALID,0,VALID,26.0206,VALID,221,VALID,0.280078,
2009-03-20, 02:25:04,VALID,1002.49,VALID,0,VALID,84.7492,VALID,0,VALID,25.9817,VALID,279,VALID,0.902734,
2009-03-20, 02:26:04,VALID,1002.45,VALID,0,VALID,84.5509,VALID,0,VALID,25.9602,VALID,355,VALID,0.903516,
2009-03-20, 02:27:04,VALID,1002.44,VALID,0,VALID,84.6424,VALID,0,VALID,25.9797,VALID,62,VALID,0.721094,
2009-03-20, 02:28:04,VALID,1002.47,VALID,0,VALID,84.8713,VALID,0.100563,VALID,25.9992,VALID,308,VALID,0.864844,
2009-03-20, 02:29:04,VALID,1002.46,VALID,0,VALID,84.8179,VALID,0.100563,VALID,25.9797,VALID,278,VALID,0.458594,
2009-03-20, 02:30:04,VALID,1002.52,VALID,0,VALID,84.8103,VALID,0.100563,VALID,25.9797,VALID,303,VALID,0.438281,
2009-03-20, 02:31:04,VALID,1002.51,VALID,0,VALID,84.6653,VALID,0,VALID,25.9797,VALID,277,VALID,1.03945,
2009-03-20, 02:32:04,VALID,1002.52,VALID,0,VALID,84.7111,VALID,0.100563,VALID,25.9797,VALID,277,VALID,0.535547,
2009-03-20, 02:33:04,VALID,1002.48,VALID,0,VALID,84.7874,VALID,0,VALID,25.9602,VALID,290,VALID,0.336719,
2009-03-20, 02:34:04,VALID,1002.48,VALID,0,VALID,84.8484,VALID,0.100563,VALID,25.8998,VALID,343,VALID,0.0695312,
2009-03-20, 02:35:04,VALID,1002.47,VALID,0,VALID,85.062,VALID,0.100563,VALID,25.9018,VALID,343,VALID,0.00351562,
2009-03-20, 02:36:04,VALID,1002.44,VALID,0,VALID,85.2222,VALID,0.100563,VALID,25.8823,VALID,343,VALID,0.2375,
2009-03-20, 02:37:04,VALID,1002.48,VALID,0,VALID,85.2833,VALID,0.100563,VALID,25.8239,VALID,338,VALID,0.358984,
2009-03-20, 02:38:04,VALID,1002.46,VALID,0,VALID,85.4892,VALID,0.100563,VALID,25.8239,VALID,244,VALID,0.628125,
2009-03-20, 02:39:04,VALID,1002.47,VALID,0,VALID,85.4587,VALID,0.100563,VALID,25.8239,VALID,355,VALID,0.780469,
2009-03-20, 02:40:04,VALID,1002.46,VALID,0,VALID,85.6189,VALID,0.100563,VALID,25.8044,VALID,324,VALID,0.628516,
2009-03-20, 02:41:04,VALID,1002.46,VALID,0,VALID,85.7562,VALID,0,VALID,25.8083,VALID,340,VALID,0.637891,
2009-03-20, 02:42:04,VALID,1002.46,VALID,0,VALID,85.9393,VALID,0,VALID,25.748,VALID,7,VALID,0.696484,
2009-03-20, 02:43:04,VALID,1002.44,VALID,0,VALID,86.1758,VALID,0,VALID,25.67,VALID,3,VALID,0.575781,
2009-03-20, 02:44:04,VALID,1002.44,VALID,0,VALID,86.4657,VALID,0,VALID,25.6311,VALID,341,VALID,0.778125,
2009-03-20, 02:45:04,VALID,1002.45,VALID,0,VALID,86.6259,VALID,0,VALID,25.6116,VALID,328,VALID,0.4125,
2009-03-20, 02:46:04,VALID,1002.41,VALID,0,VALID,86.6107,VALID,0,VALID,25.5921,VALID,304,VALID,1.01641,
2009-03-20, 02:47:04,VALID,1002.43,VALID,0,VALID,86.5573,VALID,0,VALID,25.6116,VALID,314,VALID,0.466016,
2009-03-20, 02:48:04,VALID,1002.43,VALID,0,VALID,86.4962,VALID,0,VALID,25.6506,VALID,306,VALID,0.244141,
2009-03-20, 02:49:04,VALID,1002.44,VALID,0,VALID,86.481,VALID,0,VALID,25.5902,VALID,306,VALID,0.00234375,
2009-03-20, 02:50:04,VALID,1002.45,VALID,0,VALID,86.5954,VALID,0,VALID,25.6116,VALID,307,VALID,0.294531,
2009-03-20, 02:51:04,VALID,1002.46,VALID,0,VALID,86.5954,VALID,0,VALID,25.5921,VALID,317,VALID,0.733984,
2009-03-20, 02:52:04,VALID,1002.46,VALID,0,VALID,86.5802,VALID,0,VALID,25.5921,VALID,302,VALID,0.794531,
2009-03-20, 02:53:04,VALID,1002.48,VALID,0,VALID,86.5573,VALID,0,VALID,25.5921,VALID,298,VALID,0.442578,
2009-03-20, 02:54:04,VALID,1002.5,VALID,0,VALID,86.7938,VALID,0,VALID,25.5727,VALID,301,VALID,0.132813,
2009-03-20, 02:55:04,VALID,1002.49,VALID,0,VALID,86.9692,VALID,0,VALID,25.5123,VALID,345,VALID,0.474219,
2009-03-20, 02:56:04,VALID,1002.47,VALID,0,VALID,87.1981,VALID,0,VALID,25.4948,VALID,346,VALID,0.435547,
2009-03-20, 02:57:04,VALID,1002.48,VALID,0,VALID,87.2744,VALID,0,VALID,25.4753,VALID,339,VALID,0.452344,
2009-03-20, 02:58:04,VALID,1002.46,VALID,0,VALID,87.1905,VALID,0,VALID,25.4753,VALID,249,VALID,0.731641,
2009-03-20, 02:59:04,VALID,1002.43,VALID,0,VALID,86.9006,VALID,0,VALID,25.5318,VALID,345,VALID,0.923047,
2009-03-20, 03:00:04,VALID,1002.42,VALID,0,VALID,86.7785,VALID,0,VALID,25.6097,VALID,297,VALID,0.441797,
2009-03-20, 03:01:04,VALID,1002.41,VALID,0,VALID,86.5725,VALID,0,VALID,25.6292,VALID,294,VALID,0.903125,
2009-03-20, 03:02:04,VALID,1002.42,VALID,0,VALID,86.6641,VALID,0,VALID,25.6895,VALID,321,VALID,0.23125,
2009-03-20, 03:03:04,VALID,1002.4,VALID,0,VALID,86.4428,VALID,0,VALID,25.7285,VALID,356,VALID,0.667969,
2009-03-20, 03:04:04,VALID,1002.39,VALID,0,VALID,86.481,VALID,0,VALID,25.7285,VALID,302,VALID,0.423047,
2009-03-20, 03:05:04,VALID,1002.39,VALID,0,VALID,86.3208,VALID,0,VALID,25.7265,VALID,279,VALID,0.725,
2009-03-20, 03:06:04,VALID,1002.38,VALID,0,VALID,86.3894,VALID,0,VALID,25.7674,VALID,287,VALID,0.26875,
2009-03-20, 03:07:04,VALID,1002.36,VALID,0,VALID,86.0843,VALID,0,VALID,25.7869,VALID,298,VALID,0.95,
2009-03-20, 03:08:04,VALID,1002.37,VALID,0,VALID,85.6647,VALID,0,VALID,25.8453,VALID,283,VALID,1.09141,
2009-03-20, 03:09:04,VALID,1002.36,VALID,0,VALID,85.3138,VALID,0,VALID,25.8823,VALID,327,VALID,0.967969,
2009-03-20, 03:10:04,VALID,1002.36,VALID,0,VALID,85.3595,VALID,0,VALID,25.9232,VALID,1,VALID,0.828125,
2009-03-20, 03:11:04,VALID,1002.36,VALID,0,VALID,85.0696,VALID,0,VALID,25.9038,VALID,345,VALID,0.615234,
2009-03-20, 03:12:04,VALID,1002.35,VALID,0,VALID,85.1612,VALID,0,VALID,25.9232,VALID,344,VALID,0.169531,
2009-03-20, 03:13:04,VALID,1002.3,VALID,0,VALID,84.8484,VALID,0,VALID,25.9232,VALID,248,VALID,1.16797,
2009-03-20, 03:14:04,VALID,1002.31,VALID,0,VALID,84.8179,VALID,0,VALID,25.9817,VALID,297,VALID,0.621484,
2009-03-20, 03:15:04,VALID,1002.32,VALID,0,VALID,84.6348,VALID,0,VALID,26.0206,VALID,326,VALID,0.516406,
2009-03-20, 03:16:04,VALID,1002.3,VALID,0,VALID,84.4441,VALID,0,VALID,26.0596,VALID,333,VALID,0.493359,
2009-03-20, 03:17:04,VALID,1002.3,VALID,0,VALID,84.322,VALID,0,VALID,26.0791,VALID,286,VALID,0.692578,
2009-03-20, 03:18:04,VALID,1002.31,VALID,0,VALID,84.0626,VALID,0,VALID,26.118,VALID,292,VALID,0.919141,
2009-03-20, 03:19:04,VALID,1002.28,VALID,0,VALID,83.849,VALID,0,VALID,26.157,VALID,312,VALID,1.07539,
2009-03-20, 03:20:04,VALID,1002.29,VALID,0,VALID,83.9253,VALID,0,VALID,26.1765,VALID,318,VALID,0.548437,
2009-03-20, 03:21:04,VALID,1002.29,VALID,0,VALID,83.8795,VALID,0,VALID,26.1959,VALID,319,VALID,0.274219,
2009-03-20, 03:22:04,VALID,1002.24,VALID,0,VALID,83.8643,VALID,0,VALID,26.155,VALID,7,VALID,0.760547,
2009-03-20, 03:23:04,VALID,1002.27,VALID,0,VALID,84.3144,VALID,0,VALID,26.1765,VALID,360,VALID,0.218359,
2009-03-20, 03:24:04,VALID,1002.26,VALID,0,VALID,84.3525,VALID,0,VALID,26.1355,VALID,359,VALID,0.333594,
2009-03-20, 03:25:04,VALID,1002.27,VALID,0,VALID,84.6272,VALID,0,VALID,26.118,VALID,358,VALID,0.330859,
2009-03-20, 03:26:04,VALID,1002.3,VALID,0,VALID,84.6882,VALID,0,VALID,26.0985,VALID,329,VALID,0.473437,
2009-03-20, 03:27:04,VALID,1002.32,VALID,0,VALID,84.6501,VALID,0,VALID,26.0791,VALID,302,VALID,0.226953,
2009-03-20, 03:28:04,VALID,1002.29,VALID,0,VALID,84.6424,VALID,0,VALID,26.0791,VALID,293,VALID,0.857422,
2009-03-20, 03:29:04,VALID,1002.34,VALID,0,VALID,84.4288,VALID,0,VALID,26.0791,VALID,263,VALID,0.678125,
2009-03-20, 03:30:04,VALID,1002.3,VALID,0,VALID,84.1923,VALID,0,VALID,26.1375,VALID,286,VALID,1.01641,
2009-03-20, 03:31:04,VALID,1002.28,VALID,0,VALID,83.9558,VALID,0,VALID,26.1765,VALID,297,VALID,0.469141,
2009-03-20, 03:32:04,VALID,1002.29,VALID,0,VALID,84.1923,VALID,0,VALID,26.1959,VALID,336,VALID,0.502344,
2009-03-20, 03:33:04,VALID,1002.27,VALID,0,VALID,84.3602,VALID,0,VALID,26.1765,VALID,341,VALID,0.530469,
2009-03-20, 03:34:04,VALID,1002.29,VALID,0,VALID,84.1771,VALID,0,VALID,26.1375,VALID,329,VALID,0.100781,
2009-03-20, 03:35:04,VALID,1002.28,VALID,0,VALID,84.2457,VALID,0,VALID,26.118,VALID,303,VALID,0.0566406,
2009-03-20, 03:36:04,VALID,1002.31,VALID,0,VALID,84.528,VALID,0,VALID,26.1395,VALID,337,VALID,0.516016,
2009-03-20, 03:37:04,VALID,1002.29,VALID,0,VALID,84.4517,VALID,0,VALID,26.118,VALID,306,VALID,0.453516,
2009-03-20, 03:38:04,VALID,1002.31,VALID,0,VALID,84.4822,VALID,0,VALID,26.1375,VALID,274,VALID,0.399219,
2009-03-20, 03:39:04,VALID,1002.32,VALID,0,VALID,84.528,VALID,0,VALID,26.1375,VALID,297,VALID,0.830859,
2009-03-20, 03:40:04,VALID,1002.35,VALID,0,VALID,84.4899,VALID,0,VALID,26.1784,VALID,352,VALID,0.558984,
2009-03-20, 03:41:04,VALID,1002.33,VALID,0,VALID,84.3678,VALID,0,VALID,26.1745,VALID,287,VALID,0.636719,
2009-03-20, 03:42:04,VALID,1002.32,VALID,0,VALID,84.7263,VALID,0.100563,VALID,26.194,VALID,351,VALID,0.635938,
2009-03-20, 03:43:04,VALID,1002.33,VALID,0,VALID,84.5967,VALID,0.100563,VALID,26.1765,VALID,286,VALID,0.923047,
2009-03-20, 03:44:04,VALID,1002.3,VALID,0,VALID,84.6119,VALID,0.100563,VALID,26.155,VALID,295,VALID,0.239844,